Location: *
(42.0175°N, 9.4056°E)
Time: 10:18:23
(UTC+00:00)

COSMOS 2406 - Pass Details

Date: 25 August 2019
Orbit: 842 x 865 km, 71.0° (Epoch: 18 September)

Event Time Altitude Azimuth Distance (km) Brightness Sun altitude
Rises 18:28:54 0° 181° (S) 3,389 6.2 -4.5°
Reaches altitude 10° 18:31:27 10° 174° (S) 2,461 5.4 -5.0°
Maximum altitude 18:36:41 41° 106° (ESE) 1,223 3.6 -5.9°
Drops below altitude 10° 18:41:59 10° 38° (NE) 2,490 5.5 -6.8°
Sets 18:44:34 0° 31° (NNE) 3,434 6.3 -7.2°
